Regional Weather Roundup
Issued by NWS Albany, NY

Home | Current Version | Previous Version | Text Only | Print | Product List | Glossary On
Versions: 1 2 3 4 5 6 7 8 9 10 11 12 13 14 15 16 17 18 19 20 21 22 23 24 25 26 27 28 29 30 31 32 33 34 35 36 37 38 39 40 41 42 43 44 45 46 47 48 49 50
000
ASUS41 KALY 210210
RWRALY

NEW YORK STATE HOURLY WEATHER ROUNDUP
NATIONAL WEATHER SERVICE ALBANY NY
900 PM EST SAT JAN 20 2018

NOTE: "FAIR" INDICATES FEW OR NO CLOUDS BELOW 12,000 FEET WITH NO
SIGNIFICANT WEATHER AND/OR NO OBSTRUCTIONS TO VISIBILITY.

NYZ032-033-038>043-046>054-057>066-NYZ062>081-082-084-210300-
EAST


CITY           SKY/WX    TMP DP  RH WIND       PRES   REMARKS
ALBANY         FAIR      39  26  59 W7        29.99R WCI  34
GLENS FALLS    FAIR      29  26  89 CALM      29.95R
POUGHKEEPSIE   FAIR      36  25  64 SW3       29.99R
NEWBURGH       CLEAR     37  28  70 W6        30.00R WCI  33
MONTGOMERY     FAIR      30  25  81 W5        29.99R WCI  25
WHITE PLAINS   FAIR      39  26  59 W3        29.98R
ISLIP          FAIR      42  28  57 W8        30.00R
NEW YORK CITY  FAIR      47  27  45 W14G22    30.00S
CENTRAL PARK   FAIR      46  27  47 W3        30.03R
$$

NYZ005>009-017-018-044>046-055-056-210300-
CENTRAL


CITY           SKY/WX    TMP DP  RH WIND       PRES   REMARKS
FULTON         FAIR      37  27  67 W10       30.01R WCI  30
SYRACUSE       MOCLDY    32  27  81 W5        30.01R WCI  27
ROME           FAIR      31  26  82 NW5       30.02R WCI  26
ELMIRA         FAIR      27  26  96 CALM      30.00R
BINGHAMTON     FAIR      36  25  64 W7        29.97R WCI  30
MONTICELLO     FAIR      29  25  85 CALM      29.99R
$$

NYZ026>034-041>043-087-210300-
NORTH


CITY           SKY/WX    TMP DP  RH WIND       PRES   REMARKS
WATERTOWN      MOCLDY    37  32  82 SW14G21   29.98R WCI  28
FORT DRUM      NOT AVBL
OGDENSBURG     CLOUDY    38  32  80 SW8       29.94R WCI  32
MASSENA        CLOUDY    38  32  79 SW13      29.92R WCI  30
SARANAC LAKE   CLOUDY    33  29  85 SW12G21   29.87S WCI  24
PLATTSBURGH    CLOUDY    40  29  64 S6        29.89R
$$

NYZ001>004-010>016-019>021-085-210300-
WEST


CITY           SKY/WX    TMP DP  RH WIND       PRES   REMARKS
NIAGARA FALLS  FAIR      33  26  75 SW6       30.02R WCI  28
BUFFALO        FAIR      33  29  85 SW10      30.03R WCI  25
DUNKIRK        FAIR      48  27  44 SW7       30.05R
JAMESTOWN      FAIR      34  25  69 SW9       30.02R WCI  27
WELLSVILLE     FAIR      38  26  62 W9        30.00R WCI  31
ROCHESTER      FAIR      36  29  75 W13       30.02R WCI  27
PENN YAN       FAIR      36  24  62 CALM      30.00R
$$

             KEY
       WCI = WIND CHILL INDEX
       VSB = VISIBILITY
       HX  = HEAT INDEX
$$



USA.gov is the U.S. government's official web portal to all federal, state and local government web resources and services.